Location: Rock Island IL
(41.5000°N, 90.5500°W)
Time: 21:59:20
(UTC-05:00)

Daily predictions for brighter satellites

Satellite Brightness Start Highest point End
(mag) Time Altitude Azimuth Time Altitude Azimuth Time Altitude Azimuth
Atlas Centaur 2 3.6 20:51:45 10° SW 20:57:51 33° S 21:04:54 10° ESE
Cosmos 1461 3.1 20:55:47 10° NW 21:00:05 74° WSW 21:04:07 10° SSE
Resurs 01 Rocket 4.4 21:00:12 10° SW 21:02:51 15° W 21:05:30 10° NW
Cosmos 1302 Rocket 4.2 20:58:23 10° NNW 21:03:38 75° WSW 21:08:52 10° SSE
BREEZE-M DEB (TANK) 2.8 20:59:22 10° SW 21:04:55 51° SSE 21:07:16 10° ENE
Aureole 2 Rocket 3.4 21:01:18 10° SSW 21:05:04 54° WNW 21:08:31 10° N
ISS -3.4 21:02:07 10° SW 21:05:21 65° SE 21:08:35 10° ENE
Abrixas rocket 4.2 21:02:40 10° W 21:05:21 21° SW 21:08:03 10° S
ATLAS 3B R/B 3.6 20:58:48 10° S 21:05:24 32° ESE 21:11:56 10° NE
Cosmos 1603 3.7 21:00:04 10° SSW 21:05:38 71° ESE 21:11:14 10° NNE
ALOS 3.1 21:04:06 10° S 21:08:38 51° W 21:13:13 10° NNW
Meteor 2-9 Rocket 4.5 21:03:41 10° NNW 21:09:25 78° W 21:15:13 10° S
FENGYUN 3A 4.4 21:06:11 10° S 21:11:26 56° W 21:16:45 10° NNW
GEOS 3 Rocket 3.8 21:07:47 10° SSE 21:13:03 75° SW 21:18:17 10° NW
Cosmos 1891 Rocket 4.5 21:09:33 10° N 21:15:43 89° E 21:21:45 10° S
PSLV R/B 3.3 21:14:22 10° WSW 21:17:53 74° S 21:21:26 10° E
Milstar 3 Cent rocket 4.3 21:14:35 10° WSW 21:19:27 16° SW 21:23:07 10° S
Cosmos 1939 Rocket 3.0 21:15:21 10° SSE 21:19:28 68° ENE 21:23:36 10° N
Lacrosse 5 rocket 4.3 21:18:08 10° WNW 21:20:38 16° NNW 21:23:14 10° NNE
Cosmos 1943 Rocket 4.0 21:19:08 10° N 21:22:55 18° NE 21:26:42 10° E
ERS-1 Rocket 3.3 21:19:06 10° S 21:24:05 69° WSW 21:29:07 10° NNW
BREEZE M DEB (TANK) 1.6 21:21:23 10° WNW 21:24:11 59° N 21:25:59 11° E
USA 186 4.1 21:23:19 10° SW 21:25:14 17° W 21:27:05 10° NW
USA 234 4.1 21:20:08 10° E 21:26:17 45° NNE 21:32:28 10° NW
Cosmos 1943 3.5 21:21:45 10° S 21:27:04 44° ESE 21:32:27 10° NE
SPOT 5 2.8 21:23:00 10° SSE 21:27:12 54° ENE 21:31:25 10° N
CZ-4 SHROUD 3.3 21:28:44 13° SSE 21:31:25 61° ENE 21:34:34 10° N
Terra 3.9 21:32:19 10° E 21:34:25 13° ENE 21:36:32 10° NE
Envisat 3.0 21:31:34 10° SSE 21:36:38 82° ENE 21:41:44 10° NNW
Cosmos 1346 Rocket 3.8 21:34:26 16° SE 21:36:47 27° E 21:40:09 10° NNE
COSMOS 2455 2.9 21:32:12 10° SSW 21:38:12 89° WNW 21:44:16 10° NNE
Cosmos 1602 Rocket 4.2 21:34:01 10° SSW 21:38:25 58° W 21:42:50 10° N
Cosmos 407 Rocket 4.1 21:34:58 10° SSE 21:39:44 35° ESE 21:44:28 10° NE
Cosmos 1825 Rocket 3.9 21:38:25 11° SSE 21:42:29 48° E 21:46:46 10° NNE
PSLV R/B 3.1 21:41:01 16° SSE 21:43:23 87° E 21:46:32 10° NNW
Tsikada Rocket 4.3 21:41:27 10° SSW 21:47:50 72° W 21:54:13 10° N
Cosmos 1812 Rocket 4.0 21:44:55 10° NNW 21:49:16 64° W 21:53:38 10° S
ARGOS 3.5 21:55:38 20° SE 21:59:16 51° ENE 22:04:32 10° N
H-2A R/B 3.7 21:57:47 10° SSW 22:01:32 30° W 22:05:24 10° NW
Cosmos 1766 3.9 22:05:32 10° N 22:09:21 42° ENE 22:10:50 29° SE
Cosmos 2369 Rocket 2.2 22:04:35 10° NNW 22:10:17 85° WSW 22:13:56 23° SSE
MetOp-B 4.3 22:06:19 17° S 22:10:34 75° WSW 22:15:57 10° NNW
Cosmos 1992 Rocket 4.4 22:06:30 10° NNW 22:11:39 60° WSW 22:15:24 18° S
Cosmos 2142 Rocket 4.5 22:06:21 10° N 22:12:41 87° E 22:17:20 19° S
USA 81 4.1 22:08:28 10° N 22:13:47 82° W 22:17:46 18° S
UNK 4.4 22:09:01 10° N 22:14:29 75° WNW 22:20:13 10° SSW
Lacrosse 4 Rocket 1.2 22:10:36 10° SSW 22:14:38 88° ESE 22:18:45 10° NNE
USA 245 4.1 22:13:39 20° SSE 22:17:47 87° WSW 22:22:47 10° NNW
SL-23 DEB 4.3 22:12:06 10° SW 22:18:40 60° SE 22:22:32 10° ENE
Cosmos 1634 Rocket 4.1 22:15:19 10° N 22:21:30 77° W 22:26:12 18° S
SeaSat 1 2.8 22:18:30 22° S 22:21:33 58° WSW 22:26:26 10° NW
NOAA 11 4.1 22:20:26 26° SSE 22:23:35 77° ENE 22:29:00 10° N
SL-08 RB Rocket 3.6 22:25:26 32° SSE 22:27:31 78° ENE 22:32:03 10° N
Geosat 4.2 22:24:17 10° NE 22:29:08 47° ESE 22:31:13 30° SSE
Cosmos 1953 Rocket 3.8 22:26:35 17° SSW 22:29:51 69° W 22:34:19 10° N
YAOGAN 6 3.4 22:29:04 25° SSW 22:30:53 48° W 22:34:32 10° NNW
CZ-4B R/B 4.1 22:29:51 10° N 22:34:52 57° WNW 22:39:57 10° SSW
Cosmos-2242 3.2 22:32:41 10° N 22:37:02 57° E 22:38:15 41° SE
H-2A R/B 2.2 22:36:00 34° SE 22:37:54 55° ENE 22:42:52 10° N
Cosmos 1805 4.0 22:35:18 10° N 22:39:00 37° ENE 22:39:29 36° E
Cosmos 2263 4.4 22:35:36 10° NNW 22:41:11 66° WSW 22:43:55 30° S
ISS -0.7 22:39:20 10° WNW 22:42:02 23° NNW 22:44:43 10° NE
Cosmos 2279 Rocket 4.0 22:36:10 10° N 22:42:27 90° WSW 22:45:52 29° S
CZ-4C R/B 3.4 22:41:12 42° S 22:42:34 83° WSW 22:46:37 10° NNW
CZ-4C R/B 3.9 22:45:27 15° E 22:45:27 15° E 22:47:28 10° ENE
Atlas Centaur 2 3.6 22:39:58 10° WSW 22:46:49 36° S 22:49:12 30° SSE
SPOT 1/Viking Rocket 4.3 22:43:57 22° SSW 22:47:00 47° W 22:51:58 10° NNW
COSMOS 2406 3.4 22:45:47 35° SSE 22:47:49 52° ESE 22:53:22 10° NNE
Cosmos 1607 4.2 22:45:43 33° SSE 22:47:50 44° ESE 22:53:42 10° NE
Cosmos 1932 4.3 22:42:37 10° SSW 22:48:46 77° ESE 22:55:01 10° NE
SAR-Lupe-2 3.4 22:49:00 66° ESE 22:49:20 72° ENE 22:52:55 10° N
Cosmos 1140 Rocket 3.6 22:47:56 39° SSE 22:49:36 57° ESE 22:54:45 10° NNE
Cosmos 676 Rocket 4.3 22:48:02 13° SSW 22:52:47 67° WNW 22:58:06 10° NNE
PSLV R/B 3.3 22:51:57 10° W 22:55:15 71° SW 22:55:15 71° SW
Landsat 7 3.8 22:54:04 41° S 22:55:42 76° WSW 23:00:29 10° NNW
ATLAS 3B R/B 3.5 22:48:13 10° SW 22:55:49 61° NW 23:03:15 10° NNE
Cosmos 1953 2.1 22:55:15 10° N 22:59:15 84° E 22:59:43 68° SSE
Spot 4 3.8 23:04:05 52° SE 23:05:13 76° ENE 23:10:01 10° N
NOSS 3-2 (A) 4.3 23:05:22 31° ESE 23:05:22 31° ESE 23:10:50 10° NE
CARTOSAT-1 3.5 23:05:16 56° S 23:06:07 78° WSW 23:10:28 10° NNW
Cosmos 1943 Rocket 2.2 23:01:43 10° NNW 23:07:16 74° WSW 23:09:02 44° S
Kosmos-1675 4.3 23:06:52 23° SW 23:08:50 65° NW 23:18:59 10° NE
USA 234 3.4 23:06:30 37° SSE 23:09:07 63° SW 23:15:39 10° NW
DMSP B5D2-2 4.0 23:05:30 10° NNE 23:10:48 86° ESE 23:12:38 43° S
Terra 1.8 23:10:21 51° S 23:11:31 75° WSW 23:16:18 10° NNW
Cosmos 1707 4.3 23:12:54 25° ENE 23:12:54 25° ENE 23:15:23 10° NNE
Cosmos 614 Rocket 4.0 23:13:25 53° SE 23:14:09 59° ESE 23:19:17 10° NNE
Cosmos 1656 Rocket 3.8 23:12:29 10° NNW 23:18:10 67° ENE 23:19:41 47° SE
SL-27 R/B 3.6 23:19:49 35° W 23:20:15 37° WNW 23:23:24 10° N
COSMOS 2487 3.7 23:23:15 34° NE 23:23:15 34° NE 23:25:35 10° NNE
Lacrosse 5 4.5 23:19:11 10° NNW 23:22:28 17° NNE 23:25:44 10° ENE
ALOS 2 4.5 23:27:55 19° ENE 23:28:25 19° ENE 23:31:30 10° NNE
Cosmos 1842 Rocket 3.6 23:30:06 10° NNW 23:34:27 65° W 23:34:46 63° WSW
USA 238 DEB 4.0 23:31:13 10° SW 23:38:16 69° NW 23:45:21 10° NNE
USA 238 4.0 23:31:18 10° SW 23:38:22 70° NW 23:45:27 10° NNE
Cosmos 1733 3.8 23:36:04 10° N 23:39:17 51° NE 23:39:17 51° NE
CZ-4B R/B 3.7 23:44:24 19° ENE 23:44:24 19° ENE 23:46:41 10° NNE
Cosmos 2208 Rocket 4.4 23:42:57 10° NNW 23:47:57 50° WSW 23:48:36 47° SW
Cosmos 1092 Rocket 4.1 23:47:06 42° SSW 23:49:18 72° W 23:55:36 10° N
